#time, x, y, z
listening to topic: rapid_gps_sample
waiting for Ctrl-C
1349392179.164832, 4098971.41503, 669238.57585, -378.0886
1349392179.666722, 4098971.41311, 669238.582646, -378.1022
1349392180.165831, 4098971.40849, 669238.587063, -378.1094
1349392180.667742, 4098971.40695, 669238.591022, -378.1114
1349392181.164741, 4098971.40594, 669238.587391, -378.1149
1349392181.666699, 4098971.40336, 669238.590573, -378.1127
1349392182.164858, 4098971.40444, 669238.591475, -378.1107
1349392182.669847, 4098971.40507, 669238.591836, -378.1152
1349392183.165715, 4098971.40834, 669238.58962, -378.1041
1349392183.667877, 4098971.41057, 669238.588411, -378.1043
1349392184.165797, 4098971.40801, 669238.588915, -378.1062
1349392184.669896, 4098971.40835, 669238.587962, -378.1088
1349392185.164717, 4098971.40323, 669238.585254, -378.1201
1349392185.666752, 4098971.40322, 669238.584701, -378.1179
1349392186.164717, 4098971.40406, 669238.587262, -378.1189
1349392186.666756, 4098971.40111, 669238.587587, -378.126
1349392187.165761, 4098971.41054, 669238.586181, -378.1057
1349392187.667733, 4098971.40939, 669238.582878, -378.103
1349392188.165823, 4098971.40997, 669238.584075, -378.1002
1349392188.666919, 4098971.40769, 669238.586558, -378.1109
1349392189.164728, 4098971.4091, 669238.577674, -378.111
1349392189.666739, 4098971.40917, 669238.580821, -378.1131
1349392190.165729, 4098971.40931, 669238.581289, -378.1113
1349392190.668836, 4098971.40469, 669238.585633, -378.1135
1349392191.165728, 4098971.4084, 669238.585507, -378.108
1349392191.666734, 4098971.40719, 669238.586536, -378.1075
1349392192.165708, 4098971.41055, 669238.585221, -378.1073
1349392192.666724, 4098971.40812, 669238.582487, -378.1055
1349392193.165714, 4098971.40589, 669238.583632, -378.1121
1349392193.666855, 4098971.40772, 669238.584733, -378.1093
1349392194.164728, 4098971.40723, 669238.584491, -378.1066
1349392194.666833, 4098971.41525, 669238.579656, -378.0942
1349392195.165790, 4098971.41202, 669238.586828, -378.1068
1349392195.668738, 4098971.40817, 669238.584602, -378.1113
1349392196.165742, 4098971.40911, 669238.582929, -378.1114
1349392196.666740, 4098971.40949, 669238.584811, -378.1156
1349392197.164731, 4098971.40807, 669238.588375, -378.107
1349392197.668721, 4098971.40783, 669238.589649, -378.1079
1349392198.164897, 4098971.4061, 669238.59048, -378.1128
1349392198.667724, 4098971.40186, 669238.596884, -378.1164
1349392199.164916, 4098971.40663, 669238.582669, -378.1099
1349392199.667736, 4098971.40745, 669238.582517, -378.113
1349392200.165720, 4098971.40945, 669238.577967, -378.1082
1349392200.667742, 4098971.40479, 669238.580242, -378.1101
1349392201.165892, 4098971.40299, 669238.58504, -378.1113
1349392201.666713, 4098971.40428, 669238.583225, -378.1131
1349392202.165716, 4098971.40121, 669238.583999, -378.1104
1349392202.669928, 4098971.40193, 669238.587791, -378.1109
1349392203.165723, 4098971.40994, 669238.581474, -378.0989
1349392203.667888, 4098971.41036, 669238.577926, -378.0981
1349392204.165786, 4098971.40508, 669238.580187, -378.1077
1349392204.667933, 4098971.40864, 669238.572726, -378.0999
1349392205.165903, 4098971.4072, 669238.583681, -378.1054
1349392205.667927, 4098971.40076, 669238.586253, -378.1107
1349392206.166750, 4098971.40581, 669238.581823, -378.1039
1349392206.666730, 4098971.40376, 669238.583565, -378.1095
1349392207.166710, 4098971.40451, 669238.583351, -378.113
1349392207.667771, 4098971.40532, 669238.582305, -378.1099
1349392208.165736, 4098971.40971, 669238.578836, -378.1012
1349392208.666832, 4098971.41404, 669238.572616, -378.0921
1349392209.165788, 4098971.40932, 669238.585503, -378.1066
1349392209.668841, 4098971.41368, 669238.580331, -378.0971
1349392210.164825, 4098971.41041, 669238.58082, -378.1005
1349392210.666407, 4098971.41365, 669238.576634, -378.0948
1349392211.164891, 4098971.40968, 669238.583222, -378.1005
1349392211.668801, 4098971.40878, 669238.583731, -378.1018
1349392212.165832, 4098971.40892, 669238.585172, -378.1007
1349392212.669725, 4098971.40885, 669238.588321, -378.1049
1349392213.165806, 4098971.41193, 669238.583829, -378.0982
1349392213.668835, 4098971.40943, 669238.587352, -378.1002
1349392214.164965, 4098971.41239, 669238.584284, -378.0981
1349392214.668852, 4098971.41118, 669238.585931, -378.0999
1349392215.164889, 4098971.41305, 669238.578167, -378.0976
1349392215.668826, 4098971.41007, 669238.578253, -378.1063
1349392216.165842, 4098971.40726, 669238.580837, -378.1099
1349392216.667959, 4098971.40227, 669238.582803, -378.1217
1349392217.165693, 4098971.40184, 669238.580366, -378.1212
1349392217.668203, 4098971.40066, 669238.579357, -378.1242
1349392218.166903, 4098971.39803, 669238.581264, -378.1309
1349392218.666845, 4098971.39465, 669238.582277, -378.1353
1349392219.164855, 4098971.39493, 669238.58266, -378.1369
1349392219.665859, 4098971.38742, 669238.588645, -378.1506
1349392220.164888, 4098971.38512, 669238.586375, -378.1509
1349392220.667737, 4098971.38231, 669238.584926, -378.1577
1349392221.165861, 4098971.39032, 669238.583284, -378.1331
1349392221.666748, 4098971.38668, 669238.587925, -378.1457
1349392222.164863, 4098971.38549, 669238.586638, -378.147
1349392222.670124, 4098971.38086, 669238.585416, -378.1531
1349392223.164856, 4098971.39558, 669238.583209, -378.1216
1349392223.665819, 4098971.39018, 669238.585677, -378.1262
1349392224.164933, 4098971.38892, 669238.585192, -378.1263
1349392224.668817, 4098971.3866, 669238.587136, -378.1312
1349392225.164890, 4098971.39878, 669238.58516, -378.1111
1349392225.668798, 4098971.40253, 669238.583142, -378.1082
1349392226.165951, 4098971.40008, 669238.588079, -378.1068
1349392226.668670, 4098971.40282, 669238.582856, -378.1026
1349392227.165679, 4098971.40896, 669238.582798, -378.0975
1349392227.666903, 4098971.40916, 669238.585449, -378.0977
1349392228.165697, 4098971.40616, 669238.585873, -378.1038
1349392228.666840, 4098971.41092, 669238.583249, -378.0933
1349392229.165719, 4098971.40777, 669238.587478, -378.0978
1349392229.669686, 4098971.41355, 669238.58526, -378.0899
1349392230.164849, 4098971.41442, 669238.586078, -378.086
1349392230.668705, 4098971.41933, 669238.583016, -378.0783
1349392231.164895, 4098971.42187, 669238.583319, -378.0773
1349392231.666666, 4098971.42685, 669238.578785, -378.0709
1349392232.164829, 4098971.42261, 669238.588282, -378.0727
1349392232.666838, 4098971.42529, 669238.583729, -378.073
1349392233.165714, 4098971.40943, 669238.594358, -378.1006
1349392233.665690, 4098971.41519, 669238.590096, -378.0883
1349392234.166768, 4098971.41642, 669238.591657, -378.0941
1349392234.668823, 4098971.41059, 669238.596591, -378.0966
1349392235.166760, 4098971.40765, 669238.598046, -378.1069
1349392235.666752, 4098971.40784, 669238.59617, -378.0969
1349392236.164752, 4098971.41335, 669238.589961, -378.0863
1349392236.666871, 4098971.41142, 669238.594308, -378.0918
1349392237.165742, 4098971.40988, 669238.590589, -378.0968
1349392237.666746, 4098971.40947, 669238.587869, -378.1009
1349392238.165897, 4098971.41021, 669238.589129, -378.1003
1349392238.666701, 4098971.41152, 669238.591063, -378.0984
1349392239.167961, 4098971.4101, 669238.588309, -378.1008
1349392239.666664, 4098971.41033, 669238.59065, -378.1006
1349392240.166750, 4098971.40577, 669238.595576, -378.1082
1349392240.668902, 4098971.40403, 669238.597277, -378.1092
1349392241.165757, 4098971.41056, 669238.585712, -378.0995
1349392241.670133, 4098971.40293, 669238.593244, -378.1103
1349392242.165726, 4098971.41071, 669238.588238, -378.0972
1349392242.669863, 4098971.40587, 669238.597032, -378.1088
1349392243.165909, 4098971.40921, 669238.58847, -378.101
1349392243.666840, 4098971.40755, 669238.591778, -378.1046
1349392244.164743, 4098971.40778, 669238.591287, -378.1045
1349392244.666650, 4098971.41002, 669238.591481, -378.0999
1349392245.164802, 4098971.40294, 669238.597361, -378.1025
1349392245.668094, 4098971.40627, 669238.593827, -378.0963
1349392246.166730, 4098971.40543, 669238.599607, -378.1
1349392246.667741, 4098971.4051, 669238.601162, -378.102
1349392247.165895, 4098971.4005, 669238.599278, -378.1176
1349392247.666863, 4098971.40532, 669238.59646, -378.1117
1349392248.164644, 4098971.39344, 669238.607862, -378.1307
1349392248.666899, 4098971.40057, 669238.600669, -378.1239
1349392249.164813, 4098971.39873, 669238.598965, -378.1226
1349392249.666774, 4098971.39867, 669238.6008, -378.1232
1349392250.165897, 4098971.39563, 669238.604159, -378.1349
1349392250.667688, 4098971.39758, 669238.602365, -378.1258
1349392251.165848, 4098971.39417, 669238.602167, -378.1245
1349392251.666715, 4098971.39197, 669238.606215, -378.1288
1349392252.164751, 4098971.39429, 669238.601668, -378.1237
1349392252.666751, 4098971.39162, 669238.604953, -378.1268
1349392253.164897, 4098971.39873, 669238.593996, -378.1139
1349392253.669846, 4098971.40647, 669238.587613, -378.0988
1349392254.167869, 4098971.41011, 669238.579963, -378.1002
1349392254.667943, 4098971.40813, 669238.582981, -378.1005
1349392255.166663, 4098971.40842, 669238.586712, -378.1058
1349392255.669728, 4098971.40617, 669238.587131, -378.1011
1349392256.166813, 4098971.40882, 669238.583595, -378.1027
1349392256.666904, 4098971.40877, 669238.585481, -378.1026
1349392257.165694, 4098971.4107, 669238.585324, -378.0964
1349392257.666789, 4098971.41166, 669238.582474, -378.0915
1349392258.165957, 4098971.41325, 669238.586422, -378.0947
1349392258.667839, 4098971.40473, 669238.594329, -378.1014
1349392259.164866, 4098971.40202, 669238.596334, -378.1051
1349392259.667854, 4098971.40348, 669238.597282, -378.1062
1349392260.164820, 4098971.4052, 669238.592173, -378.1025
1349392260.667844, 4098971.40586, 669238.589144, -378.1033
1349392261.164835, 4098971.4061, 669238.591658, -378.1012
1349392261.668987, 4098971.40618, 669238.58779, -378.1038
1349392262.164837, 4098971.40519, 669238.590957, -378.1071
1349392262.666807, 4098971.40679, 669238.590002, -378.1045
1349392263.164787, 4098971.41154, 669238.585108, -378.0933
1349392263.666827, 4098971.40613, 669238.588027, -378.1084
1349392264.164806, 4098971.40633, 669238.588047, -378.1107
1349392264.666819, 4098971.40909, 669238.583096, -378.1029
1349392265.165855, 4098971.41104, 669238.58445, -378.1057
1349392265.666839, 4098971.40977, 669238.586341, -378.0963
1349392266.164861, 4098971.40682, 669238.594818, -378.1065
1349392266.668817, 4098971.40857, 669238.591001, -378.0997
1349392267.166816, 4098971.40967, 669238.590111, -378.0986
1349392267.667824, 4098971.41153, 669238.590161, -378.0972
1349392268.165805, 4098971.40463, 669238.594388, -378.1026
1349392268.666799, 4098971.40913, 669238.59034, -378.0924
1349392269.164706, 4098971.41027, 669238.587458, -378.0939
1349392269.667779, 4098971.41017, 669238.588944, -378.0908
1349392270.164747, 4098971.41222, 669238.591034, -378.0905
1349392270.668735, 4098971.41076, 669238.593749, -378.0961
1349392271.164707, 4098971.40941, 669238.589911, -378.0981
1349392271.668689, 4098971.41222, 669238.589454, -378.0901
1349392272.165801, 4098971.41214, 669238.590089, -378.0927
1349392272.666703, 4098971.40428, 669238.59888, -378.1033
1349392273.164922, 4098971.40332, 669238.599797, -378.106
1349392273.667706, 4098971.40836, 669238.591987, -378.0948
1349392274.166823, 4098971.4059, 669238.592859, -378.0997
1349392274.669961, 4098971.41058, 669238.588721, -378.0906
1349392275.166798, 4098971.40402, 669238.596548, -378.103
1349392275.666762, 4098971.40951, 669238.587136, -378.0915
1349392276.165766, 4098971.40455, 669238.588096, -378.1035
1349392276.666821, 4098971.40338, 669238.589306, -378.1056
1349392277.164818, 4098971.40735, 669238.584488, -378.1065
1349392277.666875, 4098971.40716, 669238.584082, -378.1087
1349392278.164932, 4098971.40756, 669238.583438, -378.103
1349392278.668669, 4098971.40251, 669238.588976, -378.1149
1349392279.164690, 4098971.41018, 669238.582478, -378.0988
1349392279.666642, 4098971.40741, 669238.584662, -378.1037
1349392280.164721, 4098971.40425, 669238.584373, -378.1056
1349392280.666725, 4098971.40618, 669238.588879, -378.1056
1349392281.164718, 4098971.4119, 669238.586602, -378.0991
1349392281.668915, 4098971.40908, 669238.587903, -378.1031
1349392282.164916, 4098971.41028, 669238.588047, -378.1042
1349392282.668846, 4098971.40703, 669238.588591, -378.1105
1349392283.164841, 4098971.40662, 669238.587971, -378.1043
1349392283.668770, 4098971.406, 669238.586734, -378.1067
1349392284.164724, 4098971.40846, 669238.586089, -378.0945
1349392284.668812, 4098971.40717, 669238.58785, -378.099
1349392285.164801, 4098971.41014, 669238.588884, -378.092
1349392285.667777, 4098971.41175, 669238.585797, -378.0921
1349392286.164820, 4098971.40701, 669238.591037, -378.1011
1349392286.669853, 4098971.40865, 669238.586488, -378.0963
1349392287.164878, 4098971.40753, 669238.591899, -378.0975
1349392287.666850, 4098971.40437, 669238.598901, -378.105
1349392288.164801, 4098971.40468, 669238.593059, -378.105
1349392288.667822, 4098971.40579, 669238.5946, -378.1031
1349392289.164665, 4098971.40794, 669238.589918, -378.0977
1349392289.666777, 4098971.4092, 669238.587113, -378.0967
1349392290.165744, 4098971.41135, 669238.584833, -378.0929
1349392290.669886, 4098971.41226, 669238.578983, -378.0944
1349392291.164692, 4098971.40699, 669238.584563, -378.1012
1349392291.666867, 4098971.40892, 669238.582847, -378.0944
1349392292.165894, 4098971.40193, 669238.589742, -378.1042
1349392292.668701, 4098971.40647, 669238.589358, -378.1032
1349392293.166817, 4098971.40408, 669238.587528, -378.1057
1349392293.667878, 4098971.40136, 669238.589629, -378.1035
1349392294.165692, 4098971.4042, 669238.588303, -378.1063
1349392294.668694, 4098971.4027, 669238.58768, -378.1067
1349392295.164856, 4098971.4009, 669238.595524, -378.1115
1349392295.669912, 4098971.40169, 669238.596977, -378.1083
1349392296.165641, 4098971.39961, 669238.595012, -378.113
1349392296.666764, 4098971.4018, 669238.595489, -378.1059
1349392297.165822, 4098971.57133, 669238.500982, -378.0993
1349392297.668715, 4098971.84731, 669238.337679, -378.1034
1349392298.164758, 4098972.13494, 669238.158526, -378.1071
1349392298.668644, 4098972.4145, 669237.951722, -378.1296
1349392299.164829, 4098972.66982, 669237.68863, -378.1273
1349392299.667814, 4098972.91267, 669237.36516, -378.1245
1349392300.164817, 4098973.15039, 669237.005636, -378.1201
1349392300.667723, 4098973.34583, 669236.639001, -378.1305
1349392301.164814, 4098973.50953, 669236.291153, -378.1267
1349392301.668871, 4098973.63733, 669235.907939, -378.1179
1349392302.164852, 4098973.74983, 669235.46291, -378.1239
1349392302.667906, 4098973.86782, 669234.965553, -378.1328
1349392303.166844, 4098973.97124, 669234.468161, -378.1406
1349392303.667866, 4098974.10984, 669233.941164, -378.1338
1349392304.165735, 4098974.2321, 669233.351273, -378.1394
1349392304.666841, 4098974.37669, 669232.76481, -378.1576
1349392305.165780, 4098974.5069, 669232.158305, -378.1608
1349392305.666837, 4098974.59575, 669231.555539, -378.1529
1349392306.165717, 4098974.74889, 669230.931205, -378.1468
1349392306.669659, 4098974.83769, 669230.360683, -378.1339
1349392307.171168, 4098974.90188, 669229.758967, -378.1296
1349392307.667875, 4098975.01916, 669229.176852, -378.1062
1349392308.164686, 4098975.09384, 669228.547536, -378.0923
1349392308.668840, 4098975.19869, 669227.939892, -378.0935
1349392309.165950, 4098975.29554, 669227.349385, -378.0642
1349392309.666823, 4098975.3611, 669226.767732, -378.0383
1349392310.164674, 4098975.46985, 669226.150161, -378.0354
1349392310.668791, 4098975.54545, 669225.550375, -378.0141
1349392311.164857, 4098975.61451, 669224.931333, -377.9936
1349392311.666906, 4098975.6982, 669224.334027, -377.9694
1349392312.164762, 4098975.77865, 669223.749003, -377.9425
1349392312.668907, 4098975.81358, 669223.143357, -377.9251
1349392313.164727, 4098975.89677, 669222.539169, -377.9086
1349392313.666920, 4098975.96, 669221.92848, -377.8774
1349392314.164858, 4098976.0168, 669221.332809, -377.8756
1349392314.668779, 4098976.07645, 669220.714894, -377.8513
1349392315.164883, 4098976.12636, 669220.099631, -377.8193
1349392315.667177, 4098976.17968, 669219.516606, -377.8228
1349392316.164758, 4098976.21704, 669218.924164, -377.7971
1349392316.666839, 4098976.23218, 669218.346915, -377.7911
1349392317.164733, 4098976.23647, 669217.881276, -377.7681
1349392317.669893, 4098976.26938, 669217.369714, -377.7752
1349392318.164665, 4098976.28654, 669216.752632, -377.7769
1349392318.668154, 4098976.2894, 669216.146753, -377.7793
1349392319.164717, 4098976.32785, 669215.538853, -377.763
1349392319.666878, 4098976.33756, 669214.918806, -377.7559
1349392320.164659, 4098976.33355, 669214.292712, -377.7383
1349392320.667838, 4098976.36715, 669213.682145, -377.7331
1349392321.165740, 4098976.3981, 669213.087397, -377.72
1349392321.667864, 4098976.39882, 669212.487938, -377.7051
1349392322.165414, 4098976.40589, 669211.863563, -377.6909
1349392322.666862, 4098976.44883, 669211.266649, -377.6795
1349392323.164869, 4098976.46465, 669210.670454, -377.6887
1349392323.666841, 4098976.44545, 669210.089751, -377.6981
1349392324.164903, 4098976.47173, 669209.468466, -377.6797
1349392324.667832, 4098976.51985, 669208.870394, -377.6859
1349392325.165886, 4098976.47446, 669208.274061, -377.6507
1349392325.667728, 4098976.46321, 669207.66917, -377.687
1349392326.164800, 4098976.42381, 669207.155474, -377.6818
1349392326.667846, 4098976.42418, 669206.630633, -377.6748
1349392327.165714, 4098976.43368, 669206.116246, -377.6806
1349392327.666887, 4098976.4742, 669205.568935, -377.6595
1349392328.163847, 4098976.45772, 669205.060174, -377.6719
1349392328.669889, 4098976.45958, 669204.508965, -377.6589
1349392329.165827, 4098976.45721, 669203.998883, -377.6823
1349392329.669772, 4098976.4918, 669203.404857, -377.6576
1349392330.164826, 4098976.49277, 669202.820786, -377.676
1349392330.666842, 4098976.52755, 669202.229193, -377.6868
1349392331.164911, 4098976.51656, 669201.595087, -377.6962
1349392331.668785, 4098976.52496, 669200.987744, -377.6863
1349392332.164865, 4098976.551, 669200.340312, -377.7013
1349392332.666836, 4098976.54343, 669199.748692, -377.6897
1349392333.164904, 4098976.53313, 669199.165419, -377.6913
1349392333.668733, 4098976.5514, 669198.551207, -377.6626
1349392334.164731, 4098976.56365, 669197.962117, -377.6817
1349392334.668678, 4098976.57045, 669197.374862, -377.6744
1349392335.164745, 4098976.56666, 669196.830378, -377.6648
1349392335.668806, 4098976.60221, 669196.280704, -377.6789
1349392336.164722, 4098976.63683, 669195.74917, -377.6735
1349392336.667890, 4098976.64007, 669195.234664, -377.6894
1349392337.164688, 4098976.69143, 669194.69256, -377.6829
1349392337.668892, 4098976.73694, 669194.195633, -377.6676
1349392338.164834, 4098976.80939, 669193.701909, -377.6734
1349392338.667842, 4098976.87539, 669193.170932, -377.6535
1349392339.164871, 4098976.99567, 669192.593278, -377.6303
1349392339.666719, 4098977.08684, 669191.982722, -377.6352
1349392340.164819, 4098977.22798, 669191.402624, -377.6129
1349392340.668858, 4098977.35046, 669190.842192, -377.5894
1349392341.165821, 4098977.43756, 669190.249236, -377.5809
1349392341.667138, 4098977.5719, 669189.648629, -377.5964
1349392342.164786, 4098977.70302, 669189.070685, -377.5625
1349392342.667726, 4098977.80558, 669188.484474, -377.5769
1349392343.164824, 4098977.92705, 669187.897042, -377.5633
1349392343.665697, 4098978.05355, 669187.303812, -377.5839
1349392344.164795, 4098978.16265, 669186.736128, -377.6044
1349392344.666725, 4098978.25984, 669186.161093, -377.6097
1349392345.164705, 4098978.38385, 669185.550519, -377.6136
1349392345.668782, 4098978.49529, 669184.981394, -377.6586
1349392346.163917, 4098978.6353, 669184.383394, -377.6594
1349392346.666834, 4098978.75051, 669183.839218, -377.693
1349392347.164695, 4098978.87409, 669183.250817, -377.6763
1349392347.666725, 4098979.03123, 669182.67112, -377.7018
1349392348.164733, 4098979.20602, 669182.082404, -377.7356
1349392348.666751, 4098979.35656, 669181.500835, -377.7314
1349392349.164717, 4098979.5259, 669180.917428, -377.7037
1349392349.666694, 4098979.70339, 669180.355806, -377.7326
1349392350.163786, 4098979.874, 669179.778063, -377.7231
1349392350.668833, 4098980.04086, 669179.176713, -377.7212
1349392351.165827, 4098980.22227, 669178.580207, -377.7225
1349392351.665812, 4098980.42507, 669178.00711, -377.7289
1349392352.164808, 4098980.60426, 669177.41619, -377.7096
1349392352.666777, 4098980.80823, 669176.844763, -377.7013
1349392353.164837, 4098981.01469, 669176.257951, -377.6816
1349392353.667736, 4098981.23414, 669175.686501, -377.6672
1349392354.164866, 4098981.41414, 669175.12502, -377.661
1349392354.666904, 4098981.59399, 669174.555498, -377.6217
1349392355.164879, 4098981.81986, 669173.98942, -377.625
1349392355.667814, 4098982.03271, 669173.390515, -377.5911
1349392356.164647, 4098982.24975, 669172.810693, -377.5588
1349392356.667763, 4098982.46015, 669172.217964, -377.5496
1349392357.164916, 4098982.66371, 669171.653689, -377.5157
1349392357.667787, 4098982.85327, 669171.105887, -377.4608
1349392358.165746, 4098983.07554, 669170.557404, -377.4411
1349392358.667707, 4098983.34431, 669170.019683, -377.4277
1349392359.164822, 4098983.61393, 669169.486497, -377.3783
1349392359.665730, 4098983.8676, 669168.922012, -377.3646
1349392360.165827, 4098984.18113, 669168.471891, -377.3201
1349392360.665840, 4098984.51775, 669167.984633, -377.2826
1349392361.164944, 4098984.84207, 669167.460302, -377.2314
1349392361.665680, 4098985.1994, 669166.9662, -377.2161
1349392362.163877, 4098985.53965, 669166.47542, -377.1917
1349392362.664832, 4098985.90491, 669165.990089, -377.1541
1349392363.164759, 4098986.2299, 669165.505329, -377.1339
1349392363.664751, 4098986.56553, 669165.031366, -377.1095
1349392364.164828, 4098986.90402, 669164.528474, -377.1212
1349392364.666750, 4098987.24506, 669164.070694, -377.1294
1349392365.164915, 4098987.60602, 669163.624277, -377.1098
1349392365.665748, 4098987.94766, 669163.168916, -377.1098
1349392366.164891, 4098988.33182, 669162.68554, -377.1315
1349392366.665845, 4098988.72373, 669162.257587, -377.1327
1349392367.165813, 4098989.12585, 669161.814096, -377.1293
1349392367.665915, 4098989.53942, 669161.412597, -377.1416
1349392368.164737, 4098989.9503, 669161.019809, -377.1388
1349392368.667836, 4098990.36708, 669160.635296, -377.1552
1349392369.164714, 4098990.81058, 669160.285487, -377.1785
1349392369.665759, 4098991.31633, 669159.954185, -377.1915
1349392370.164722, 4098991.78323, 669159.62404, -377.1934
1349392370.666777, 4098992.25181, 669159.344929, -377.2126
1349392371.164743, 4098992.7605, 669159.09857, -377.2231
1349392371.667805, 4098993.30695, 669158.865347, -377.2251
1349392372.164769, 4098993.8616, 669158.639062, -377.2516
1349392372.667866, 4098994.40479, 669158.413716, -377.2633
1349392373.164833, 4098994.91628, 669158.22705, -377.2628
1349392373.666901, 4098995.4742, 669158.054222, -377.2644
1349392374.164643, 4098996.06719, 669157.910943, -377.2724
1349392374.667913, 4098996.68313, 669157.765294, -377.276
1349392375.166717, 4098997.24107, 669157.635783, -377.2589
1349392375.665897, 4098997.80518, 669157.50521, -377.2698
1349392376.165713, 4098998.37369, 669157.35312, -377.2665
1349392376.665881, 4098998.99324, 669157.217068, -377.2768
1349392377.166898, 4098999.59593, 669157.085269, -377.2872
1349392377.665657, 4099000.18637, 669156.936475, -377.308
1349392378.164740, 4099000.76473, 669156.799683, -377.313
1349392378.667763, 4099001.35139, 669156.666501, -377.3145
1349392379.165749, 4099001.93872, 669156.508579, -377.339
1349392379.665832, 4099002.52684, 669156.352449, -377.3362
1349392380.164874, 4099003.12212, 669156.224584, -377.3585
1349392380.666851, 4099003.71265, 669156.06472, -377.3633
1349392381.164731, 4099004.27061, 669155.912191, -377.4044
1349392381.665704, 4099004.86235, 669155.745813, -377.4083
1349392382.164747, 4099005.45537, 669155.607635, -377.4173